Palestine, Arkansas
Current Conditions -  °F | °C
As of 12:55 AM on Monday 24 Nov 2014 (Local Time) from KUTA Reporting Station
Clear Clear  
Wind Chill: 59°   Ceiling: Unl
Heat Index: 59°   Visibility: 10mi
Dew Point: 55°   Wind: 18mph
Humidity: 88%   Direction: 200°SSW
Pressure: 29.48"   Gusts: NA
Location:  34.97°N, 90.9°W
Report Text: KUTA 240655Z AUTO 20016KT 10SM CLR 15/13 A2948 RMK AO2
Loading
Personal Weather Stations






























Interactive Weather Map New forecast layout! Learn more

10-Day Weather Forecast

Advertisements
Track Severe Weather on mobile